logo
Search for airport 
image banner adimage banner adimage banner ad
image banner ad

EHBID - Biddinghuizen

Located in , Netherlands

ICAO - , IATA -

Data provided by Airmate  

General information

Coordinates: N52°25'45" E5°40'27"
Elevation is -13 feet MSL.
 
View others Airports in Flevoland

Operational data

Special qualification required
Current time UTC:
Current local time:
Weather at : EHLE - Lelystad/Lelystad ( 11 km )
METAR: EHLE 171325Z AUTO 28011KT 230V310 9999 FEW026 SCT029 22/15 Q1020 NOSIG
TAF: TAF EHLE 171108Z 1712/1818 28010KT 9999 SCT025 BECMG 1716/1719 VRB02KT BECMG 1723/1802 2000 BCFG PROB40 TEMPO 1802/1806 0600 BECMG 1804/1807 CAVOK BECMG 1812/1815 02006KT
View NOTAMs / SUP AIP / TFR affecting this airport [VIEW]
Communications frequencies: [VIEW]

Runways:

RWY identifierQFULength (ft)Width (ft)SurfaceLDA (ft)
0538°3937164GRASS
23218°3937164GRASS

Airport contact information

Address: Netherlands

Satellite view of EHBID